Time,TemperatureF,DewpointF,PressureIn,WindDirection,WindDirectionDegrees,WindSpeedMPH,WindSpeedGustMPH,Humidity,HourlyPrecipIn,Conditions,Clouds,dailyrainin,SoftwareType,DateUTC
2013-06-03 00:02:00,50.2,45.6,30.01,NNW,336,0.0,0.0,84,0.00,,---,0.00,VWS V13.01,2013-06-03 05:02:00,
2013-06-03 00:07:00,50.0,45.7,30.01,NNW,336,0.0,0.0,85,0.00,,---,0.00,VWS V13.01,2013-06-03 05:07:00,
2013-06-03 00:12:00,49.9,45.6,30.01,NNW,336,0.0,0.0,85,0.00,,---,0.00,VWS V13.01,2013-06-03 05:12:00,
2013-06-03 00:17:00,49.8,45.5,30.01,NNW,336,0.0,0.0,85,0.00,,---,0.00,VWS V13.01,2013-06-03 05:17:00,
2013-06-03 00:22:00,49.7,45.4,30.01,NNW,336,0.0,0.0,85,0.00,,---,0.00,VWS V13.01,2013-06-03 05:22:00,
2013-06-03 00:27:00,49.6,45.3,30.01,NNW,336,0.0,0.0,85,0.00,,---,0.00,VWS V13.01,2013-06-03 05:27:00,
2013-06-03 00:32:00,49.4,45.1,30.01,NNW,336,0.0,0.0,85,0.00,,---,0.00,VWS V13.01,2013-06-03 05:32:00,
2013-06-03 00:37:00,49.2,44.9,30.01,NNW,336,0.0,0.0,85,0.00,,---,0.00,VWS V13.01,2013-06-03 05:37:00,
2013-06-03 00:42:00,49.0,44.7,30.01,NNW,336,0.0,0.0,85,0.00,,---,0.00,VWS V13.01,2013-06-03 05:42:00,
2013-06-03 00:47:00,48.8,44.8,30.01,NNW,336,0.0,0.0,86,0.00,,---,0.00,VWS V13.01,2013-06-03 05:47:00,
2013-06-03 00:52:00,48.6,44.6,30.01,NNW,336,0.0,0.0,86,0.00,,---,0.00,VWS V13.01,2013-06-03 05:52:00,
2013-06-03 00:57:00,48.3,44.6,30.01,NNW,336,0.0,0.0,87,0.00,,---,0.00,VWS V13.01,2013-06-03 05:57:00,
2013-06-03 01:02:00,48.1,44.4,30.01,NNW,336,0.0,0.0,87,0.00,,---,0.00,VWS V13.01,2013-06-03 06:02:00,
2013-06-03 01:07:00,47.8,44.1,30.01,NNW,336,0.0,0.0,87,0.00,,---,0.00,VWS V13.01,2013-06-03 06:07:00,
2013-06-03 01:12:00,47.6,44.2,30.01,NNW,336,0.0,0.0,88,0.00,,---,0.00,VWS V13.01,2013-06-03 06:12:00,
2013-06-03 01:17:00,47.4,44.3,30.01,NNW,336,0.0,0.0,89,0.00,,---,0.00,VWS V13.01,2013-06-03 06:17:00,
2013-06-03 01:22:00,47.3,44.2,30.01,NNW,336,0.0,0.0,89,0.00,,---,0.00,VWS V13.01,2013-06-03 06:22:00,
2013-06-03 01:27:00,47.2,44.4,30.01,NNW,336,0.0,0.0,90,0.00,,---,0.00,VWS V13.01,2013-06-03 06:27:00,
2013-06-03 01:32:00,47.1,44.6,30.01,NNW,336,0.0,0.0,91,0.00,,---,0.00,VWS V13.01,2013-06-03 06:32:00,
2013-06-03 01:37:00,47.2,44.7,30.01,NNW,336,0.0,0.0,91,0.00,,---,0.00,VWS V13.01,2013-06-03 06:37:00,
2013-06-03 01:42:00,47.2,44.7,30.01,NNW,336,0.0,0.0,91,0.00,,---,0.00,VWS V13.01,2013-06-03 06:42:00,
2013-06-03 01:47:00,47.2,44.7,30.01,NNW,336,0.0,0.0,91,0.00,,---,0.00,VWS V13.01,2013-06-03 06:47:00,
2013-06-03 01:52:00,47.3,44.8,30.01,NNW,336,0.0,0.0,91,0.00,,---,0.00,VWS V13.01,2013-06-03 06:52:00,
2013-06-03 01:57:00,47.3,44.8,30.01,NNW,336,0.0,0.0,91,0.00,,---,0.00,VWS V13.01,2013-06-03 06:57:00,
2013-06-03 02:02:00,47.4,44.9,30.01,NNW,336,0.0,0.0,91,0.00,,---,0.00,VWS V13.01,2013-06-03 07:02:00,
2013-06-03 02:07:00,47.5,45.0,30.01,NNW,336,0.0,0.0,91,0.00,,---,0.00,VWS V13.01,2013-06-03 07:07:00,
2013-06-03 02:12:00,47.6,45.1,30.01,NNW,336,0.0,0.0,91,0.00,,---,0.00,VWS V13.01,2013-06-03 07:12:00,
2013-06-03 02:17:00,47.6,45.1,30.00,NNW,336,0.0,0.0,91,0.00,,---,0.00,VWS V13.01,2013-06-03 07:17:00,
2013-06-03 02:22:00,47.7,45.2,30.00,NNW,336,0.0,0.0,91,0.00,,---,0.00,VWS V13.01,2013-06-03 07:22:00,
2013-06-03 02:27:00,47.7,44.9,30.00,NNW,336,0.0,0.0,90,0.00,,---,0.00,VWS V13.01,2013-06-03 07:27:00,
2013-06-03 02:32:00,47.8,45.0,30.00,NNW,336,0.0,0.0,90,0.00,,---,0.00,VWS V13.01,2013-06-03 07:32:00,
2013-06-03 02:37:00,47.7,44.9,30.00,NNW,336,0.0,0.0,90,0.00,,---,0.00,VWS V13.01,2013-06-03 07:37:00,
2013-06-03 02:42:00,47.8,45.0,30.00,NNW,336,0.0,0.0,90,0.00,,---,0.00,VWS V13.01,2013-06-03 07:42:00,
2013-06-03 02:47:00,47.7,44.6,30.00,NNW,336,0.0,0.0,89,0.00,,---,0.00,VWS V13.01,2013-06-03 07:47:00,
2013-06-03 02:52:00,47.7,44.6,30.00,NNW,336,0.0,0.0,89,0.00,,---,0.00,VWS V13.01,2013-06-03 07:52:00,
2013-06-03 02:57:00,47.7,44.6,30.00,NNW,336,0.0,0.0,89,0.00,,---,0.00,VWS V13.01,2013-06-03 07:57:00,
2013-06-03 03:02:00,47.8,44.7,30.00,NNW,336,0.0,0.0,89,0.00,,---,0.00,VWS V13.01,2013-06-03 08:02:00,
2013-06-03 03:07:00,47.9,44.5,30.00,NNW,336,0.0,0.0,88,0.00,,---,0.00,VWS V13.01,2013-06-03 08:07:00,
2013-06-03 03:12:00,47.9,44.5,30.00,NNW,336,0.0,0.0,88,0.00,,---,0.00,VWS V13.01,2013-06-03 08:12:00,
2013-06-03 03:17:00,47.9,44.5,30.00,NNW,336,0.0,0.0,88,0.00,,---,0.00,VWS V13.01,2013-06-03 08:17:00,
2013-06-03 03:22:00,47.9,44.5,30.00,NNW,336,0.0,0.0,88,0.00,,---,0.00,VWS V13.01,2013-06-03 08:22:00,
2013-06-03 03:27:00,47.8,44.4,30.00,NNW,336,0.0,0.0,88,0.00,,---,0.00,VWS V13.01,2013-06-03 08:27:00,
2013-06-03 03:32:00,47.6,44.2,30.00,NNW,336,0.0,0.0,88,0.00,,---,0.00,VWS V13.01,2013-06-03 08:32:00,
2013-06-03 03:37:00,47.5,44.1,30.00,NNW,336,0.0,0.0,88,0.00,,---,0.00,VWS V13.01,2013-06-03 08:37:00,
2013-06-03 03:42:00,47.4,44.0,30.00,NNW,336,0.0,0.0,88,0.00,,---,0.00,VWS V13.01,2013-06-03 08:42:00,
2013-06-03 03:47:00,47.3,43.9,29.99,NNW,336,0.0,0.0,88,0.00,,---,0.00,VWS V13.01,2013-06-03 08:47:00,
2013-06-03 03:52:00,47.2,43.8,30.00,NNW,336,0.0,0.0,88,0.00,,---,0.00,VWS V13.01,2013-06-03 08:52:00,
2013-06-03 03:57:00,47.1,43.7,29.99,NNW,336,0.0,0.0,88,0.00,,---,0.00,VWS V13.01,2013-06-03 08:57:00,
2013-06-03 04:02:00,47.1,43.7,30.00,NNW,336,0.0,0.0,88,0.00,,---,0.00,VWS V13.01,2013-06-03 09:02:00,
2013-06-03 04:07:00,47.1,43.7,30.00,NNW,336,0.0,0.0,88,0.00,,---,0.00,VWS V13.01,2013-06-03 09:07:00,
2013-06-03 04:12:00,47.1,43.7,30.00,NNW,336,0.0,0.0,88,0.00,,---,0.00,VWS V13.01,2013-06-03 09:12:00,
2013-06-03 04:17:00,47.2,43.8,30.00,NNW,336,0.0,0.0,88,0.00,,---,0.00,VWS V13.01,2013-06-03 09:17:00,
2013-06-03 04:22:00,47.1,43.7,30.00,NNW,336,0.0,0.0,88,0.00,,---,0.00,VWS V13.01,2013-06-03 09:22:00,
2013-06-03 04:27:00,47.1,43.7,30.00,NNW,336,0.0,0.0,88,0.00,,---,0.00,VWS V13.01,2013-06-03 09:27:00,
2013-06-03 04:32:00,47.0,43.9,30.00,NNW,336,0.0,0.0,89,0.00,,---,0.00,VWS V13.01,2013-06-03 09:32:00,
2013-06-03 04:37:00,46.8,43.7,30.00,NNW,336,0.0,0.0,89,0.00,,---,0.00,VWS V13.01,2013-06-03 09:37:00,
2013-06-03 04:42:00,46.7,43.6,30.00,NNW,336,0.0,0.0,89,0.00,,---,0.00,VWS V13.01,2013-06-03 09:42:00,
2013-06-03 04:47:00,46.5,43.4,30.00,NNW,336,0.0,0.0,89,0.00,,---,0.00,VWS V13.01,2013-06-03 09:47:00,
2013-06-03 04:52:00,46.4,43.6,30.00,NNW,336,0.0,0.0,90,0.00,,---,0.00,VWS V13.01,2013-06-03 09:52:00,
2013-06-03 04:57:00,46.3,43.5,30.00,NNW,336,0.0,0.0,90,0.00,,---,0.00,VWS V13.01,2013-06-03 09:57:00,
2013-06-03 05:02:00,46.1,43.3,30.00,NNW,336,0.0,0.0,90,0.00,,---,0.00,VWS V13.01,2013-06-03 10:02:00,
2013-06-03 05:07:00,46.0,43.2,30.00,NNW,336,0.0,0.0,90,0.00,,---,0.00,VWS V13.01,2013-06-03 10:07:00,
2013-06-03 05:12:00,45.9,43.4,30.01,NNW,336,0.0,0.0,91,0.00,,---,0.00,VWS V13.01,2013-06-03 10:12:00,
2013-06-03 05:17:00,45.7,43.2,30.01,NNW,336,0.0,0.0,91,0.00,,---,0.00,VWS V13.01,2013-06-03 10:17:00,
2013-06-03 05:22:00,45.5,43.0,30.01,NNW,336,0.0,0.0,91,0.00,,---,0.00,VWS V13.01,2013-06-03 10:22:00,
2013-06-03 05:27:00,45.3,42.8,30.01,NNW,336,0.0,0.0,91,0.00,,---,0.00,VWS V13.01,2013-06-03 10:27:00,
2013-06-03 05:32:00,45.1,42.6,30.01,NNW,336,0.0,0.0,91,0.00,,---,0.00,VWS V13.01,2013-06-03 10:32:00,
2013-06-03 05:37:00,45.0,42.8,30.01,NNW,336,0.0,0.0,92,0.00,,---,0.00,VWS V13.01,2013-06-03 10:37:00,
2013-06-03 05:42:00,44.9,42.7,30.02,NNW,336,0.0,0.0,92,0.00,,---,0.00,VWS V13.01,2013-06-03 10:42:00,
2013-06-03 05:47:00,44.7,42.5,30.01,NNW,336,0.0,0.0,92,0.00,,---,0.00,VWS V13.01,2013-06-03 10:47:00,
2013-06-03 05:52:00,44.6,42.4,30.02,NNW,336,0.0,0.0,92,0.00,,---,0.00,VWS V13.01,2013-06-03 10:52:00,
2013-06-03 05:57:00,44.5,42.3,30.02,NNW,336,0.0,0.0,92,0.00,,---,0.00,VWS V13.01,2013-06-03 10:57:00,
2013-06-03 06:02:00,44.3,42.4,30.02,NNW,336,0.0,0.0,93,0.00,,---,0.00,VWS V13.01,2013-06-03 11:02:00,
2013-06-03 06:07:00,44.3,42.4,30.02,NNW,336,0.0,0.0,93,0.00,,---,0.00,VWS V13.01,2013-06-03 11:07:00,
2013-06-03 06:12:00,44.3,42.4,30.02,NNW,336,0.0,0.0,93,0.00,,---,0.00,VWS V13.01,2013-06-03 11:12:00,
2013-06-03 06:17:00,44.3,42.4,30.02,NNW,336,0.0,0.0,93,0.00,,---,0.00,VWS V13.01,2013-06-03 11:17:00,
2013-06-03 06:22:00,44.5,42.9,30.02,NNW,336,0.0,0.0,94,0.00,,---,0.00,VWS V13.01,2013-06-03 11:22:00,
2013-06-03 06:27:00,44.6,43.0,30.02,NNW,336,0.0,0.0,94,0.00,,---,0.00,VWS V13.01,2013-06-03 11:27:00,
2013-06-03 06:32:00,44.9,43.3,30.02,NNW,336,0.0,0.0,94,0.00,,---,0.00,VWS V13.01,2013-06-03 11:32:00,
2013-06-03 06:37:00,45.1,43.8,30.03,NNW,336,0.0,0.0,95,0.00,,---,0.00,VWS V13.01,2013-06-03 11:37:00,
2013-06-03 06:42:00,45.4,44.0,30.03,NNW,336,0.0,0.0,95,0.00,,---,0.00,VWS V13.01,2013-06-03 11:42:00,
2013-06-03 06:47:00,45.8,44.5,30.02,NNW,336,0.0,0.0,95,0.00,,---,0.00,VWS V13.01,2013-06-03 11:47:00,
2013-06-03 06:52:00,46.1,44.8,30.02,NNW,336,0.0,0.0,95,0.00,,---,0.00,VWS V13.01,2013-06-03 11:52:00,
2013-06-03 06:57:00,46.5,45.2,30.02,NNW,336,0.0,0.0,95,0.00,,---,0.00,VWS V13.01,2013-06-03 11:57:00,
2013-06-03 07:02:00,46.9,45.5,30.03,NNW,336,0.0,0.0,95,0.00,,---,0.00,VWS V13.01,2013-06-03 12:02:00,
2013-06-03 07:07:00,47.4,46.0,30.03,NNW,336,0.0,0.0,95,0.00,,---,0.00,VWS V13.01,2013-06-03 12:07:00,
2013-06-03 07:13:00,47.9,46.5,30.03,NNW,336,0.0,0.0,95,0.00,,---,0.00,VWS V13.01,2013-06-03 12:13:00,
2013-06-03 07:18:00,48.5,46.9,30.03,NNW,336,0.0,0.0,94,0.00,,---,0.00,VWS V13.01,2013-06-03 12:18:00,
2013-06-03 07:23:00,49.1,46.9,30.03,NNW,336,0.0,0.0,92,0.00,,---,0.00,VWS V13.01,2013-06-03 12:23:00,
2013-06-03 07:28:00,49.6,46.8,30.03,NNW,336,0.0,0.0,90,0.00,,---,0.00,VWS V13.01,2013-06-03 12:28:00,
2013-06-03 07:33:00,50.3,46.3,30.04,NNW,336,0.0,0.0,86,0.00,,---,0.00,VWS V13.01,2013-06-03 12:33:00,
2013-06-03 07:38:00,51.0,46.7,30.04,NNW,336,0.0,0.0,85,0.00,,---,0.00,VWS V13.01,2013-06-03 12:38:00,
2013-06-03 07:43:00,51.7,46.4,30.04,NNW,336,0.0,0.0,82,0.00,,---,0.00,VWS V13.01,2013-06-03 12:43:00,
2013-06-03 07:48:00,52.2,46.9,30.04,NNW,336,0.0,0.0,82,0.00,,---,0.00,VWS V13.01,2013-06-03 12:48:00,
2013-06-03 07:53:00,52.6,46.9,30.04,NNW,336,0.0,0.0,81,0.00,,---,0.00,VWS V13.01,2013-06-03 12:53:00,
2013-06-03 07:58:00,52.8,47.1,30.04,NNW,336,0.0,0.0,81,0.00,,---,0.00,VWS V13.01,2013-06-03 12:58:00,
2013-06-03 08:03:00,53.1,47.4,30.05,NNW,336,0.0,0.0,81,0.00,,---,0.00,VWS V13.01,2013-06-03 13:03:00,
2013-06-03 08:08:00,53.3,47.3,30.05,NNW,336,0.0,0.0,80,0.00,,---,0.00,VWS V13.01,2013-06-03 13:08:00,
2013-06-03 08:13:00,53.7,47.3,30.05,NNW,336,0.0,0.0,79,0.00,,---,0.00,VWS V13.01,2013-06-03 13:13:00,
2013-06-03 08:18:00,54.1,47.4,30.05,NNW,336,0.0,0.0,78,0.00,,---,0.00,VWS V13.01,2013-06-03 13:18:00,
2013-06-03 08:23:00,54.4,47.3,30.05,NNW,336,0.0,0.0,77,0.00,,---,0.00,VWS V13.01,2013-06-03 13:23:00,
2013-06-03 08:28:00,54.9,48.2,30.05,NNW,336,0.0,0.0,78,0.00,,---,0.00,VWS V13.01,2013-06-03 13:28:00,
2013-06-03 08:33:00,55.2,48.1,30.05,NNW,336,0.0,0.0,77,0.00,,---,0.00,VWS V13.01,2013-06-03 13:33:00,
2013-06-03 08:38:00,55.6,49.2,30.05,NNW,336,0.0,0.0,79,0.00,,---,0.00,VWS V13.01,2013-06-03 13:38:00,
2013-06-03 08:43:00,56.0,48.5,30.04,NNW,336,0.0,0.0,76,0.00,,---,0.00,VWS V13.01,2013-06-03 13:43:00,
2013-06-03 08:48:00,56.4,48.6,30.05,NNW,336,0.0,0.0,75,0.00,,---,0.00,VWS V13.01,2013-06-03 13:48:00,
2013-06-03 08:53:00,56.7,48.5,30.04,NNW,336,0.0,0.0,74,0.00,,---,0.00,VWS V13.01,2013-06-03 13:53:00,
2013-06-03 08:58:00,57.1,48.9,30.04,NNW,336,0.0,0.0,74,0.00,,---,0.00,VWS V13.01,2013-06-03 13:58:00,
2013-06-03 09:03:00,57.6,49.0,30.04,NNW,336,0.0,0.0,73,0.00,,---,0.00,VWS V13.01,2013-06-03 14:03:00,
2013-06-03 09:08:00,58.1,48.4,30.05,NNW,336,0.0,0.0,70,0.00,,---,0.00,VWS V13.01,2013-06-03 14:08:00,
2013-06-03 09:13:00,58.6,48.1,30.05,NNW,336,0.0,0.0,68,0.00,,---,0.00,VWS V13.01,2013-06-03 14:13:00,
2013-06-03 09:18:00,59.0,48.5,30.05,NNW,336,0.0,0.0,68,0.00,,---,0.00,VWS V13.01,2013-06-03 14:18:00,
2013-06-03 09:23:00,59.4,48.8,30.05,NNW,336,0.0,0.0,68,0.00,,---,0.00,VWS V13.01,2013-06-03 14:23:00,
2013-06-03 09:28:00,59.7,48.7,30.05,NNW,336,0.0,0.0,67,0.00,,---,0.00,VWS V13.01,2013-06-03 14:28:00,
2013-06-03 09:33:00,60.2,49.6,30.04,NNW,336,0.0,0.0,68,0.00,,---,0.00,VWS V13.01,2013-06-03 14:33:00,
2013-06-03 09:38:00,60.6,49.2,30.04,NNW,336,0.0,0.0,66,0.00,,---,0.00,VWS V13.01,2013-06-03 14:38:00,
2013-06-03 09:43:00,60.9,48.7,30.04,WNW,298,0.0,0.0,64,0.00,,---,0.00,VWS V13.01,2013-06-03 14:43:00,
2013-06-03 09:48:00,61.3,49.0,30.04,WSW,238,0.0,0.0,64,0.00,,---,0.00,VWS V13.01,2013-06-03 14:48:00,
2013-06-03 09:53:00,61.4,48.3,30.04,WSW,239,0.0,0.0,62,0.00,,---,0.00,VWS V13.01,2013-06-03 14:53:00,
2013-06-03 09:58:00,62.0,50.1,30.04,WSW,239,0.0,0.0,65,0.00,,---,0.00,VWS V13.01,2013-06-03 14:58:00,
2013-06-03 10:03:00,62.6,49.4,30.04,SW,223,0.0,0.0,62,0.00,,---,0.00,VWS V13.01,2013-06-03 15:03:00,
2013-06-03 10:08:00,62.9,46.5,30.03,South,184,0.0,0.0,55,0.00,,---,0.00,VWS V13.01,2013-06-03 15:08:00,
2013-06-03 10:13:00,63.1,46.2,30.03,South,169,0.0,0.0,54,0.00,,---,0.00,VWS V13.01,2013-06-03 15:13:00,
2013-06-03 10:18:00,63.2,45.8,30.03,SSE,165,0.0,0.0,53,0.00,,---,0.00,VWS V13.01,2013-06-03 15:18:00,
2013-06-03 10:23:00,63.3,45.4,30.03,SSE,165,0.0,0.0,52,0.00,,---,0.00,VWS V13.01,2013-06-03 15:23:00,
2013-06-03 10:28:00,63.8,45.9,30.03,SSE,167,0.0,0.0,52,0.00,,---,0.00,VWS V13.01,2013-06-03 15:28:00,
2013-06-03 10:33:00,64.1,47.1,30.03,South,175,0.0,0.0,54,0.00,,---,0.00,VWS V13.01,2013-06-03 15:33:00,
2013-06-03 10:38:00,63.8,46.8,30.03,South,176,0.0,0.0,54,0.00,,---,0.00,VWS V13.01,2013-06-03 15:38:00,
2013-06-03 10:43:00,63.5,44.5,30.03,South,176,0.0,0.0,50,0.00,,---,0.00,VWS V13.01,2013-06-03 15:43:00,
2013-06-03 10:48:00,63.6,46.7,30.03,South,176,0.0,0.0,54,0.00,,---,0.00,VWS V13.01,2013-06-03 15:48:00,
2013-06-03 10:53:00,64.5,47.0,30.03,WSW,237,0.0,0.0,53,0.00,,---,0.00,VWS V13.01,2013-06-03 15:53:00,
2013-06-03 10:58:00,65.1,46.0,30.03,WSW,239,0.0,0.0,50,0.00,,---,0.00,VWS V13.01,2013-06-03 15:58:00,
2013-06-03 11:03:00,65.3,45.7,30.03,WSW,248,0.0,0.0,49,0.00,,---,0.00,VWS V13.01,2013-06-03 16:03:00,
2013-06-03 11:08:00,65.4,49.3,30.03,WSW,244,0.0,0.0,56,0.00,,---,0.00,VWS V13.01,2013-06-03 16:08:00,
2013-06-03 11:13:00,65.6,44.8,30.03,WSW,246,0.0,0.0,47,0.00,,---,0.00,VWS V13.01,2013-06-03 16:13:00,
2013-06-03 11:18:00,65.6,46.5,30.03,WSW,248,0.0,0.0,50,0.00,,---,0.00,VWS V13.01,2013-06-03 16:18:00,
2013-06-03 11:23:00,65.7,46.6,30.03,WSW,249,0.0,0.0,50,0.00,,---,0.00,VWS V13.01,2013-06-03 16:23:00,
2013-06-03 11:28:00,65.9,49.3,30.03,WSW,249,0.0,0.0,55,0.00,,---,0.00,VWS V13.01,2013-06-03 16:28:00,
2013-06-03 11:33:00,65.8,46.7,30.03,WSW,252,0.0,0.0,50,0.00,,---,0.00,VWS V13.01,2013-06-03 16:33:00,
2013-06-03 11:38:00,65.3,45.7,30.03,SSW,202,0.0,0.0,49,0.00,,---,0.00,VWS V13.01,2013-06-03 16:38:00,
2013-06-03 11:43:00,65.1,44.9,30.03,SSW,202,0.0,0.0,48,0.00,,---,0.00,VWS V13.01,2013-06-03 16:43:00,
2013-06-03 11:48:00,65.5,46.4,30.03,South,189,0.0,0.0,50,0.00,,---,0.00,VWS V13.01,2013-06-03 16:48:00,
2013-06-03 11:53:00,66.3,50.2,30.04,SSW,192,0.0,0.0,56,0.00,,---,0.00,VWS V13.01,2013-06-03 16:53:00,
2013-06-03 11:58:00,67.1,47.3,30.03,SW,214,0.0,0.0,49,0.00,,---,0.00,VWS V13.01,2013-06-03 16:58:00,
2013-06-03 12:03:00,67.2,44.0,30.03,SW,214,0.0,0.0,43,0.00,,---,0.00,VWS V13.01,2013-06-03 17:03:00,
2013-06-03 12:08:00,67.2,45.2,30.03,NW,325,0.0,0.0,45,0.00,,---,0.00,VWS V13.01,2013-06-03 17:08:00,
2013-06-03 12:13:00,67.2,49.0,30.03,NW,325,0.0,0.0,52,0.00,,---,0.00,VWS V13.01,2013-06-03 17:13:00,
2013-06-03 12:18:00,66.8,45.9,30.03,NW,325,0.0,0.0,47,0.00,,---,0.00,VWS V13.01,2013-06-03 17:18:00,
2013-06-03 12:23:00,66.3,46.0,30.03,NW,325,0.0,0.0,48,0.00,,---,0.00,VWS V13.01,2013-06-03 17:23:00,
2013-06-03 12:28:00,66.1,44.2,30.03,NW,325,0.0,0.0,45,0.00,,---,0.00,VWS V13.01,2013-06-03 17:28:00,
2013-06-03 12:33:00,66.0,45.2,30.03,NW,325,0.0,0.0,47,0.00,,---,0.00,VWS V13.01,2013-06-03 17:33:00,
2013-06-03 12:38:00,66.2,50.1,30.03,NW,325,0.0,0.0,56,0.00,,---,0.00,VWS V13.01,2013-06-03 17:38:00,
2013-06-03 12:43:00,66.4,47.7,30.03,NW,325,0.0,0.0,51,0.00,,---,0.00,VWS V13.01,2013-06-03 17:43:00,
2013-06-03 12:48:00,66.5,45.7,30.02,NW,325,0.0,0.0,47,0.00,,---,0.00,VWS V13.01,2013-06-03 17:48:00,
2013-06-03 12:53:00,66.6,46.9,30.02,NW,325,0.0,0.0,49,0.00,,---,0.00,VWS V13.01,2013-06-03 17:53:00,
2013-06-03 12:58:00,66.5,46.2,30.02,NW,325,0.0,0.0,48,0.00,,---,0.00,VWS V13.01,2013-06-03 17:58:00,
2013-06-03 13:03:00,66.3,45.5,30.02,NW,325,0.0,0.0,47,0.00,,---,0.00,VWS V13.01,2013-06-03 18:03:00,
2013-06-03 13:08:00,66.1,44.7,30.02,NW,325,0.0,0.0,46,0.00,,---,0.00,VWS V13.01,2013-06-03 18:08:00,
2013-06-03 13:13:00,65.9,45.1,30.02,NW,325,0.0,0.0,47,0.00,,---,0.00,VWS V13.01,2013-06-03 18:13:00,
2013-06-03 13:18:00,65.9,47.3,30.02,NW,325,0.0,0.0,51,0.00,,---,0.00,VWS V13.01,2013-06-03 18:18:00,
2013-06-03 13:23:00,65.8,46.7,30.02,NW,325,0.0,0.0,50,0.00,,---,0.00,VWS V13.01,2013-06-03 18:23:00,
2013-06-03 13:28:00,65.5,46.4,30.02,NW,325,0.0,0.0,50,0.00,,---,0.00,VWS V13.01,2013-06-03 18:28:00,
2013-06-03 13:33:00,65.6,49.0,30.02,NW,325,0.0,0.0,55,0.00,,---,0.00,VWS V13.01,2013-06-03 18:33:00,
2013-06-03 13:38:00,66.0,46.8,30.02,NW,325,0.0,0.0,50,0.00,,---,0.00,VWS V13.01,2013-06-03 18:38:00,
2013-06-03 13:43:00,66.3,49.7,30.02,NW,325,0.0,0.0,55,0.00,,---,0.00,VWS V13.01,2013-06-03 18:43:00,
2013-06-03 13:48:00,66.2,47.0,30.02,NW,325,0.0,0.0,50,0.00,,---,0.00,VWS V13.01,2013-06-03 18:48:00,
2013-06-03 13:53:00,65.8,45.0,30.02,NW,325,0.0,0.0,47,0.00,,---,0.00,VWS V13.01,2013-06-03 18:53:00,
2013-06-03 13:58:00,65.4,48.8,30.02,NW,325,0.0,0.0,55,0.00,,---,0.00,VWS V13.01,2013-06-03 18:58:00,
2013-06-03 14:03:00,65.3,47.8,30.02,NW,325,0.0,0.0,53,0.00,,---,0.00,VWS V13.01,2013-06-03 19:03:00,
2013-06-03 14:08:00,65.3,50.2,30.02,NW,325,0.0,0.0,58,0.00,,---,0.00,VWS V13.01,2013-06-03 19:08:00,
2013-06-03 14:13:00,65.3,46.7,30.02,NW,325,0.0,0.0,51,0.00,,---,0.00,VWS V13.01,2013-06-03 19:13:00,
2013-06-03 14:18:00,65.5,47.4,30.02,NW,325,0.0,0.0,52,0.00,,---,0.00,VWS V13.01,2013-06-03 19:18:00,
2013-06-03 14:23:00,65.4,48.3,30.01,NW,325,0.0,0.0,54,0.00,,---,0.00,VWS V13.01,2013-06-03 19:23:00,
2013-06-03 14:28:00,65.2,48.2,30.01,NW,325,0.0,0.0,54,0.00,,---,0.00,VWS V13.01,2013-06-03 19:28:00,
2013-06-03 14:33:00,65.0,45.9,30.01,NW,325,0.0,0.0,50,0.00,,---,0.00,VWS V13.01,2013-06-03 19:33:00,
2013-06-03 14:38:00,64.9,47.9,30.00,NW,325,0.0,0.0,54,0.00,,---,0.00,VWS V13.01,2013-06-03 19:38:00,
2013-06-03 14:43:00,64.9,46.9,30.00,NW,325,0.0,0.0,52,0.00,,---,0.00,VWS V13.01,2013-06-03 19:43:00,
2013-06-03 14:48:00,65.1,46.0,30.00,NW,325,0.0,0.0,50,0.00,,---,0.00,VWS V13.01,2013-06-03 19:48:00,
2013-06-03 14:53:00,65.3,47.2,30.00,NW,325,0.0,0.0,52,0.00,,---,0.00,VWS V13.01,2013-06-03 19:53:00,
2013-06-03 14:58:00,65.4,50.2,30.00,NW,325,0.0,0.0,58,0.00,,---,0.00,VWS V13.01,2013-06-03 19:58:00,
2013-06-03 15:03:00,65.3,50.2,30.00,NW,325,0.0,0.0,58,0.00,,---,0.00,VWS V13.01,2013-06-03 20:03:00,
2013-06-03 15:08:00,65.1,49.0,29.99,NW,325,0.0,0.0,56,0.00,,---,0.00,VWS V13.01,2013-06-03 20:08:00,
2013-06-03 15:13:00,65.1,48.5,30.00,NW,325,0.0,0.0,55,0.00,,---,0.00,VWS V13.01,2013-06-03 20:13:00,
2013-06-03 15:18:00,64.9,46.4,29.99,NW,325,0.0,0.0,51,0.00,,---,0.00,VWS V13.01,2013-06-03 20:18:00,
2013-06-03 15:23:00,64.9,46.4,29.99,NNW,331,0.0,0.0,51,0.00,,---,0.00,VWS V13.01,2013-06-03 20:23:00,
2013-06-03 15:28:00,65.0,45.9,29.99,NNW,331,0.0,0.0,50,0.00,,---,0.00,VWS V13.01,2013-06-03 20:28:00,
2013-06-03 15:33:00,65.1,46.5,29.99,NNW,331,0.0,0.0,51,0.00,,---,0.00,VWS V13.01,2013-06-03 20:33:00,
2013-06-03 15:38:00,65.3,49.2,29.99,NNW,331,0.0,0.0,56,0.00,,---,0.00,VWS V13.01,2013-06-03 20:38:00,
2013-06-03 15:43:00,65.2,50.5,30.00,NNW,331,0.0,0.0,59,0.00,,---,0.00,VWS V13.01,2013-06-03 20:43:00,
2013-06-03 15:48:00,65.0,46.5,30.00,NNW,332,0.0,0.0,51,0.00,,---,0.00,VWS V13.01,2013-06-03 20:48:00,
2013-06-03 15:53:00,64.7,46.7,30.00,NNW,332,0.0,0.0,52,0.00,,---,0.00,VWS V13.01,2013-06-03 20:53:00,
2013-06-03 15:58:00,64.5,48.5,30.00,NNW,331,0.0,0.0,56,0.00,,---,0.00,VWS V13.01,2013-06-03 20:58:00,
2013-06-03 16:03:00,64.3,48.3,30.00,NNW,332,0.0,0.0,56,0.00,,---,0.00,VWS V13.01,2013-06-03 21:03:00,
2013-06-03 16:08:00,64.1,48.6,30.00,NNW,331,0.0,0.0,57,0.00,,---,0.00,VWS V13.01,2013-06-03 21:08:00,
2013-06-03 16:13:00,64.1,47.1,29.99,NNW,331,0.0,0.0,54,0.00,,---,0.00,VWS V13.01,2013-06-03 21:13:00,
2013-06-03 16:18:00,64.2,47.2,29.99,NNW,332,0.0,0.0,54,0.00,,---,0.00,VWS V13.01,2013-06-03 21:18:00,
2013-06-03 16:23:00,64.3,48.3,29.98,NNW,332,0.0,0.0,56,0.00,,---,0.00,VWS V13.01,2013-06-03 21:23:00,
2013-06-03 16:28:00,64.3,46.3,29.98,NNW,331,0.0,0.0,52,0.00,,---,0.00,VWS V13.01,2013-06-03 21:28:00,
2013-06-03 16:33:00,64.4,48.4,29.97,NNW,332,0.0,0.0,56,0.00,,---,0.00,VWS V13.01,2013-06-03 21:33:00,
2013-06-03 16:38:00,64.3,47.8,29.97,NNW,332,0.0,0.0,55,0.00,,---,0.00,VWS V13.01,2013-06-03 21:38:00,
2013-06-03 16:43:00,64.1,48.6,29.98,NNW,331,0.0,0.0,57,0.00,,---,0.00,VWS V13.01,2013-06-03 21:43:00,
2013-06-03 16:48:00,64.0,47.5,29.97,NNW,332,0.0,0.0,55,0.00,,---,0.00,VWS V13.01,2013-06-03 21:48:00,
2013-06-03 16:53:00,63.9,47.4,29.97,NNW,332,0.0,0.0,55,0.00,,---,0.00,VWS V13.01,2013-06-03 21:53:00,
2013-06-03 16:58:00,63.8,47.8,29.97,NNW,332,0.0,0.0,56,0.00,,---,0.00,VWS V13.01,2013-06-03 21:58:00,
2013-06-03 17:03:00,63.7,48.2,29.96,NNW,332,0.0,0.0,57,0.00,,---,0.00,VWS V13.01,2013-06-03 22:03:00,
2013-06-03 17:08:00,63.7,47.7,29.97,NNW,332,0.0,0.0,56,0.00,,---,0.00,VWS V13.01,2013-06-03 22:08:00,
2013-06-03 17:13:00,63.8,47.8,29.97,NNW,332,0.0,0.0,56,0.00,,---,0.00,VWS V13.01,2013-06-03 22:13:00,
2013-06-03 17:18:00,63.9,48.4,29.96,NNW,332,0.0,0.0,57,0.00,,---,0.00,VWS V13.01,2013-06-03 22:18:00,
2013-06-03 17:23:00,63.9,48.4,29.96,NNW,332,0.0,0.0,57,0.00,,---,0.00,VWS V13.01,2013-06-03 22:23:00,
2013-06-03 17:28:00,63.8,48.3,29.96,NNW,331,0.0,0.0,57,0.00,,---,0.00,VWS V13.01,2013-06-03 22:28:00,
2013-06-03 17:33:00,63.8,47.8,29.97,NNW,332,0.0,0.0,56,0.00,,---,0.00,VWS V13.01,2013-06-03 22:33:00,
2013-06-03 17:38:00,63.7,48.7,29.96,NNW,332,0.0,0.0,58,0.00,,---,0.00,VWS V13.01,2013-06-03 22:38:00,
2013-06-03 17:43:00,63.5,48.0,29.95,ESE,106,0.0,0.0,57,0.00,,---,0.00,VWS V13.01,2013-06-03 22:43:00,
2013-06-03 17:48:00,63.4,47.9,29.95,ESE,106,0.0,0.0,57,0.00,,---,0.00,VWS V13.01,2013-06-03 22:48:00,
2013-06-03 17:53:00,63.6,47.2,29.93,ENE,72,0.0,0.0,55,0.00,,---,0.00,VWS V13.01,2013-06-03 22:53:00,
2013-06-03 17:58:00,63.7,47.2,29.93,ENE,78,0.0,0.0,55,0.00,,---,0.00,VWS V13.01,2013-06-03 22:58:00,
2013-06-03 18:03:00,63.7,47.7,29.94,ESE,108,0.0,0.0,56,0.00,,---,0.00,VWS V13.01,2013-06-03 23:03:00,
2013-06-03 18:08:00,63.6,46.7,29.94,ESE,113,0.0,0.0,54,0.00,,---,0.00,VWS V13.01,2013-06-03 23:08:00,
2013-06-03 18:13:00,63.7,47.2,29.94,ESE,113,0.0,0.0,55,0.00,,---,0.00,VWS V13.01,2013-06-03 23:13:00,
2013-06-03 18:18:00,63.9,48.4,29.94,ESE,107,0.0,0.0,57,0.00,,---,0.00,VWS V13.01,2013-06-03 23:18:00,
2013-06-03 18:23:00,64.1,49.0,29.95,ESE,107,0.0,0.0,58,0.00,,---,0.00,VWS V13.01,2013-06-03 23:23:00,
2013-06-03 18:28:00,64.3,48.3,29.96,ESE,107,0.0,0.0,56,0.00,,---,0.00,VWS V13.01,2013-06-03 23:28:00,
2013-06-03 18:33:00,64.4,47.9,29.97,ESE,106,0.0,0.0,55,0.00,,---,0.00,VWS V13.01,2013-06-03 23:33:00,
2013-06-03 18:38:00,64.4,48.4,29.96,ESE,107,0.0,0.0,56,0.00,,---,0.00,VWS V13.01,2013-06-03 23:38:00,
2013-06-03 18:43:00,64.5,50.3,29.96,ESE,106,0.0,0.0,60,0.00,,---,0.00,VWS V13.01,2013-06-03 23:43:00,
2013-06-03 18:48:00,64.7,48.7,29.97,ESE,106,0.0,0.0,56,0.00,,---,0.00,VWS V13.01,2013-06-03 23:48:00,
2013-06-03 18:53:00,64.8,48.3,29.96,ESE,107,0.0,0.0,55,0.00,,---,0.00,VWS V13.01,2013-06-03 23:53:00,
2013-06-03 18:58:00,64.8,48.3,29.96,ESE,106,0.0,0.0,55,0.00,,---,0.00,VWS V13.01,2013-06-03 23:58:00,
2013-06-03 19:04:00,64.9,48.8,29.96,ESE,106,0.0,0.0,56,0.00,,---,0.00,VWS V13.01,2013-06-04 00:04:00,
2013-06-03 19:08:00,64.8,49.2,29.96,ESE,107,0.0,0.0,57,0.00,,---,0.00,VWS V13.01,2013-06-04 00:08:00,
2013-06-03 19:14:00,64.7,49.1,29.96,ESE,107,0.0,0.0,57,0.00,,---,0.00,VWS V13.01,2013-06-04 00:14:00,
2013-06-03 19:19:00,64.6,48.6,29.96,East,92,0.0,0.0,56,0.00,,---,0.00,VWS V13.01,2013-06-04 00:19:00,
2013-06-03 19:24:00,64.3,47.8,29.97,East,92,0.0,0.0,55,0.00,,---,0.00,VWS V13.01,2013-06-04 00:24:00,
2013-06-03 19:29:00,64.1,48.1,29.97,East,92,0.0,0.0,56,0.00,,---,0.00,VWS V13.01,2013-06-04 00:29:00,
2013-06-03 19:34:00,64.0,48.5,29.97,East,93,0.0,0.0,57,0.00,,---,0.00,VWS V13.01,2013-06-04 00:34:00,
2013-06-03 19:39:00,63.7,48.7,29.97,East,93,0.0,0.0,58,0.00,,---,0.00,VWS V13.01,2013-06-04 00:39:00,
2013-06-03 19:44:00,63.6,49.5,29.97,East,93,0.0,0.0,60,0.00,,---,0.00,VWS V13.01,2013-06-04 00:44:00,
2013-06-03 19:49:00,63.5,48.9,29.97,East,93,0.0,0.0,59,0.00,,---,0.00,VWS V13.01,2013-06-04 00:49:00,
2013-06-03 19:54:00,63.3,49.2,29.97,East,92,0.0,0.0,60,0.00,,---,0.00,VWS V13.01,2013-06-04 00:54:00,
2013-06-03 19:59:00,63.2,49.1,29.98,East,92,0.0,0.0,60,0.00,,---,0.00,VWS V13.01,2013-06-04 00:59:00,
2013-06-03 20:04:00,63.0,48.9,29.98,East,92,0.0,0.0,60,0.00,,---,0.00,VWS V13.01,2013-06-04 01:04:00,
2013-06-03 20:09:00,62.9,49.3,29.98,East,93,0.0,0.0,61,0.00,,---,0.00,VWS V13.01,2013-06-04 01:09:00,
2013-06-03 20:14:00,62.7,49.1,29.99,East,93,0.0,0.0,61,0.00,,---,0.00,VWS V13.01,2013-06-04 01:14:00,
2013-06-03 20:19:00,62.5,49.3,29.99,East,93,0.0,0.0,62,0.00,,---,0.00,VWS V13.01,2013-06-04 01:19:00,
2013-06-03 20:24:00,62.3,49.1,30.00,East,93,0.0,0.0,62,0.00,,---,0.00,VWS V13.01,2013-06-04 01:24:00,
2013-06-03 20:29:00,62.1,49.4,30.00,East,92,0.0,0.0,63,0.00,,---,0.00,VWS V13.01,2013-06-04 01:29:00,
2013-06-03 20:34:00,61.8,50.7,30.00,East,92,0.0,0.0,67,0.00,,---,0.00,VWS V13.01,2013-06-04 01:34:00,
2013-06-03 20:39:00,61.6,50.1,30.00,East,93,0.0,0.0,66,0.00,,---,0.00,VWS V13.01,2013-06-04 01:39:00,
2013-06-03 20:44:00,61.3,49.9,30.00,East,93,0.0,0.0,66,0.00,,---,0.00,VWS V13.01,2013-06-04 01:44:00,
2013-06-03 20:49:00,61.1,50.1,30.00,East,93,0.0,0.0,67,0.00,,---,0.00,VWS V13.01,2013-06-04 01:49:00,
2013-06-03 20:54:00,60.8,49.8,30.00,East,93,0.0,0.0,67,0.00,,---,0.00,VWS V13.01,2013-06-04 01:54:00,
2013-06-03 20:59:00,60.5,49.9,30.00,East,93,0.0,0.0,68,0.00,,---,0.00,VWS V13.01,2013-06-04 01:59:00,
2013-06-03 21:04:00,60.3,50.1,30.00,East,92,0.0,0.0,69,0.00,,---,0.00,VWS V13.01,2013-06-04 02:04:00,
2013-06-03 21:09:00,60.0,50.6,29.99,East,92,0.0,0.0,71,0.00,,---,0.00,VWS V13.01,2013-06-04 02:09:00,
2013-06-03 21:14:00,59.8,51.1,30.00,East,93,0.0,0.0,73,0.00,,---,0.00,VWS V13.01,2013-06-04 02:14:00,
2013-06-03 21:19:00,59.7,49.9,30.00,East,93,0.0,0.0,70,0.00,,---,0.00,VWS V13.01,2013-06-04 02:19:00,
2013-06-03 21:24:00,59.9,49.7,29.99,East,93,0.0,0.0,69,0.00,,---,0.00,VWS V13.01,2013-06-04 02:24:00,
2013-06-03 21:29:00,60.1,50.3,30.00,East,92,0.0,0.0,70,0.00,,---,0.00,VWS V13.01,2013-06-04 02:29:00,
2013-06-03 21:34:00,60.1,49.5,30.00,East,93,0.0,0.0,68,0.00,,---,0.00,VWS V13.01,2013-06-04 02:34:00,
2013-06-03 21:39:00,60.3,50.1,30.00,East,92,0.0,0.0,69,0.00,,---,0.00,VWS V13.01,2013-06-04 02:39:00,
2013-06-03 21:44:00,60.3,49.7,30.00,East,93,0.0,0.0,68,0.00,,---,0.00,VWS V13.01,2013-06-04 02:44:00,
2013-06-03 21:49:00,60.4,50.6,30.00,East,93,0.0,0.0,70,0.00,,---,0.00,VWS V13.01,2013-06-04 02:49:00,
2013-06-03 21:54:00,60.3,50.5,30.00,East,93,0.0,0.0,70,0.00,,---,0.00,VWS V13.01,2013-06-04 02:54:00,
2013-06-03 21:59:00,60.2,49.6,30.00,East,93,0.0,0.0,68,0.00,,---,0.00,VWS V13.01,2013-06-04 02:59:00,
2013-06-03 22:04:00,60.2,49.2,30.00,East,93,0.0,0.0,67,0.00,,---,0.00,VWS V13.01,2013-06-04 03:04:00,
2013-06-03 22:09:00,60.3,50.1,30.00,East,93,0.0,0.0,69,0.00,,---,0.00,VWS V13.01,2013-06-04 03:09:00,
2013-06-03 22:14:00,60.3,50.1,30.01,East,92,0.0,0.0,69,0.00,,---,0.00,VWS V13.01,2013-06-04 03:14:00,
2013-06-03 22:19:00,60.1,50.3,30.01,East,93,0.0,0.0,70,0.00,,---,0.00,VWS V13.01,2013-06-04 03:19:00,
2013-06-03 22:24:00,60.0,50.6,30.01,East,93,0.0,0.0,71,0.00,,---,0.00,VWS V13.01,2013-06-04 03:24:00,
2013-06-03 22:29:00,59.8,50.4,30.01,East,93,0.0,0.0,71,0.00,,---,0.00,VWS V13.01,2013-06-04 03:29:00,
2013-06-03 22:34:00,59.6,49.8,30.01,East,92,0.0,0.0,70,0.00,,---,0.00,VWS V13.01,2013-06-04 03:34:00,
2013-06-03 22:39:00,59.6,50.6,30.01,East,92,0.0,0.0,72,0.00,,---,0.00,VWS V13.01,2013-06-04 03:39:00,
2013-06-03 22:44:00,59.5,50.1,30.02,East,93,0.0,0.0,71,0.00,,---,0.00,VWS V13.01,2013-06-04 03:44:00,
2013-06-03 22:49:00,59.4,50.0,30.02,East,92,0.0,0.0,71,0.00,,---,0.00,VWS V13.01,2013-06-04 03:49:00,
2013-06-03 22:54:00,59.4,50.0,30.02,East,93,0.0,0.0,71,0.00,,---,0.00,VWS V13.01,2013-06-04 03:54:00,
2013-06-03 22:59:00,59.3,50.3,30.02,East,92,0.0,0.0,72,0.00,,---,0.00,VWS V13.01,2013-06-04 03:59:00,
2013-06-03 23:01:00,59.3,50.7,30.02,East,92,0.0,0.0,73,0.00,,---,0.00,VWS V13.01,2013-06-04 04:01:00,
2013-06-03 23:02:00,59.2,50.6,30.02,East,92,0.0,0.0,73,0.00,,---,0.00,VWS V13.01,2013-06-04 04:02:00,
2013-06-03 23:07:00,59.0,50.4,30.02,East,93,0.0,0.0,73,0.00,,---,0.00,VWS V13.01,2013-06-04 04:07:00,
2013-06-03 23:12:00,59.0,50.4,30.02,East,93,0.0,0.0,73,0.00,,---,0.00,VWS V13.01,2013-06-04 04:12:00,
2013-06-03 23:17:00,59.0,50.4,30.02,East,93,0.0,0.0,73,0.00,,---,0.00,VWS V13.01,2013-06-04 04:17:00,
2013-06-03 23:22:00,59.0,50.7,30.02,East,93,0.0,0.0,74,0.00,,---,0.00,VWS V13.01,2013-06-04 04:22:00,
2013-06-03 23:27:00,58.8,51.3,30.02,East,93,0.0,0.0,76,0.00,,---,0.00,VWS V13.01,2013-06-04 04:27:00,
2013-06-03 23:32:00,58.7,51.2,30.02,East,92,0.0,0.0,76,0.00,,---,0.00,VWS V13.01,2013-06-04 04:32:00,
2013-06-03 23:37:00,58.6,51.1,30.02,East,92,0.0,0.0,76,0.00,,---,0.00,VWS V13.01,2013-06-04 04:37:00,
2013-06-03 23:42:00,58.5,50.6,30.02,East,93,0.0,0.0,75,0.00,,---,0.00,VWS V13.01,2013-06-04 04:42:00,
2013-06-03 23:47:00,58.5,50.2,30.01,East,93,0.0,0.0,74,0.00,,---,0.00,VWS V13.01,2013-06-04 04:47:00,
2013-06-03 23:52:00,58.7,50.5,30.01,East,92,0.0,0.0,74,0.00,,---,0.00,VWS V13.01,2013-06-04 04:52:00,
2013-06-03 23:57:00,58.9,50.6,30.00,East,93,0.0,0.0,74,0.00,,---,0.00,VWS V13.01,2013-06-04 04:57:00,